Other Surface Observations
Issued by NWS

Home | Current Version | Previous Version | Text Only | Print | Product List | Glossary On
Versions: 1 2 3 4 5 6 7 8 9 10 11 12 13 14 15 16 17 18 19 20 21 22 23 24 25 26 27 28 29 30 31 32 33 34 35 36 37 38 39 40 41 42 43 44 45 46 47 48 49 50
000
SXUS52 KTAE 280118
OSOTAE
OSOTAE
North Florida/South Alabama/Southwest Georgia Weather Roundup
National Weather Service Tallahassee Florida
800 PM EST TUE JAN 27 2015

Note: "fair" indicates few or no clouds below 12,000 feet with no
significant weather and/or obstructions to visibility.

!FLZ017-115-028-034-025-280200
...North Florida...

CITY           SKY/WX    TMP DP  RH WIND       PRES   REMARKS
TALLAHASSEE    CLEAR     49  34  56 CALM      30.03R
APALACHICOLA   CLEAR     56  46  69 NW5       30.04R
PERRY          CLEAR     46  37  72 CALM      30.03R
CROSS CITY       N/A     51  43  74 NW5       30.02R
JACKSONVILLE   CLEAR     49  37  63 NW5       30.00R
$$

!FLZ112-006-005-002-011-280200
...Florida Panhandle...

CITY           SKY/WX    TMP DP  RH WIND       PRES   REMARKS
MARIANNA       HVY RAIN  51  35  54 NW6       30.04R
BONIFAY        FAIR      49  40  71 CALM      30.06R
PANAMA CITY NW FAIR      48  41  76 NW5       30.04R
TYNDALL AFB    CLEAR     55  37  50 NW3       30.05R
TYND DRONE APT FAIR      54  45  73 W2        30.03R
DE FUNIAK SPR  FAIR      53  35  50 N3        30.06R
EGLIN AFB      CLEAR     52  36  54 NW5       30.06R
DESTIN         CLEAR     56  40  55 CALM      30.06R
HURLBURT       CLEAR     59  31  35 NW5       30.05R
CRESTVIEW      CLEAR     53  37  54 CALM      30.08R
PENSACOLA      CLEAR     56  36  47 NW3       30.06R
$$

!ALZ063-066-280200
...South Alabama...

CITY           SKY/WX    TMP DP  RH WIND       PRES   REMARKS
DOTHAN         CLEAR     48  35  60 N6        30.08R
OZARK CAIRNS   CLEAR     51  34  51 NW6       30.05R
FT RUCKER HELI CLEAR     46  37  71 CALM      30.05R
RUCKER HELI 3  FAIR      49  36  61 N3        30.08R
RUCKER HELI 2  FAIR      46  38  73 NW3       30.05R
FLORALA APT    CLEAR     50  35  56 CALM      30.08R
ANDALUSIA      CLEAR     56  35  45 N5        30.06R
TROY           CLEAR     47  34  60 N5        30.07R WCI  45
EUFALA         FAIR      49  31  49 CALM      30.05R
MOBILE         CLEAR     52  36  54 CALM      30.09R
$$

!GAZ120>161-280200
...Southwest and South Central Georgia...

CITY           SKY/WX    TMP DP  RH WIND       PRES   REMARKS
THOMASVILLE    FAIR      50  36  57 NW3       30.04R
BAINBRIDGE     CLEAR     54  37  54 NW8       30.04R
MOODY AFB      CLEAR     48  32  54 NW6       30.02R
VALDOSTA       CLEAR     43  36  76 CALM      30.02R
MOULTRIE       CLEAR     50  36  57 CALM      30.03R
BLAKELY        CLEAR     48  37  66 CALM      30.05R
ALBANY         CLEAR     46  33  60 CALM      30.05R
TIFTON         FAIR      46  32  57 N5        30.02R WCI  44
FITZGERALD     FAIR      50  29  45 N7        30.05R
CORDELE        FAIR      49  31  50 N5        30.04S
AMERICUS       FAIR      46  30  53 N3        30.05R
HOMERVILLE     FAIR      45  41  87 CALM      30.02R
$$

!GMZ750-755-770-775-280200
...Coastal and Buoy Obs...

STATION/POSITION TIME  TEMP    WIND        PRES    VSBY  WAVE
                       AIR SEA DIR/SP/G                  HT/PER
                 (UTC) (F)     (DEG/KT/KT) (MB)    (MI)  (FT/S)
KEATON BEACH     0100   56     320/  4/  6 1016.8R
CEDAR KEY        0057   58     300/  8/ 11 1016.6R
C TOWER          0100   61     310/ 18/ 19 1016.8R
APALACHICOLA BUO 0100   64 68  310/ 21/ 23 1016.5R         6/ 7
PANAMA CITY BUOY 0025   64 70  320/ 17/ 21 1017.8R         5/ 7
MOBILE BUOY      0034   64 66  280/ 12/ 14 1019.5R         3/ 7
ORANGE BCH AL BU 0100   61 62  270/ 14/ 16 1017.9R         2/ 7
$$



USA.gov is the U.S. government's official web portal to all federal, state and local government web resources and services.